Change the Weather History Date:

Monday, December 24, 2012

  Actual Average (KLRD) Record (KLRD)
Temperature  
Mean Temperature 69 °F 56 °F  
Max Temperature 82 °F 66 °F 89 °F (1955)
Min Temperature 56 °F 46 °F 19 °F (1983)
Degree Days  
Heating Degree Days 0 10  
Month to date heating degree days 205  
Since 1 July heating degree days 320  
Cooling Degree Days 4 1  
Month to date cooling degree days 28  
Year to date cooling degree days 4283  
Growing Degree Days 19 (Base 50)    
Moisture  
Dew Point 55 °F    
Average Humidity 69    
Maximum Humidity 93    
Minimum Humidity 37    
Precipitation  
Precipitation 0.00 in 0.03 in 0.84 in (1957)
Month to date precipitation 0.65  
Year to date precipitation 19.97  
Sea Level Pressure  
Sea Level Pressure 29.84 in    
Wind  
Wind Speed 3 mph (SE)    
Max Wind Speed 12 mph    
Max Gust Speed 16 mph    
Visibility 10 miles    
Events      
T = Trace of Precipitation, MM = Missing Value Source: NWS Daily Summary

Daily Weather History Graph

Daily Weather History Graph

Search for Another Location

Airport or City:

Trip Planner

Search our weather history database for the weather conditions in past years. The results will help you decide how hot, cold, wet, or windy it might be!

Date:

Astronomy

Dec. 24, 2012 Rise Set
Actual Time 7:23 AM CST 5:50 PM CST
Civil Twilight 6:58 AM CST 6:15 PM CST
Nautical Twilight 6:29 AM CST 6:44 PM CST
Astronomical Twilight 6:00 AM CST 7:13 PM CST
Moon 3:12 PM CST (12/24) 4:10 AM CST (12/24)
Length of Visible Light 11h 17m
Length of Day
10h 26m
Waxing Gibbous, 88% of the Moon is Illuminated
Dec 24
Waxing Gibbous
Dec 28
Full
Jan 4
Last Quarter
Jan 11
New
Jan 18
First Quarter

Hourly Weather History & Observations

Time (CST) Temp. Heat Index Dew Point Humidity Pressure Visibility Wind Dir Wind Speed Gust Speed Precip Events Conditions
12:15 AM 62.1 °F - 51.8 °F 69% 29.93 in 10.0 mi NE 4.6 mph - N/A   Clear
12:35 AM 61.7 °F - 52.2 °F 71% 29.93 in 10.0 mi NNE 3.5 mph - N/A   Clear
12:55 AM 60.3 °F - 52.0 °F 74% 29.91 in 10.0 mi ESE 3.5 mph - N/A   Clear
1:15 AM 59.2 °F - 51.8 °F 77% 29.92 in 10.0 mi North 3.5 mph - N/A   Clear
1:35 AM 60.3 °F - 52.2 °F 75% 29.91 in 10.0 mi Calm Calm - N/A   Clear
1:55 AM 59.9 °F - 52.9 °F 78% 29.90 in 10.0 mi Calm Calm - N/A   Clear
2:15 AM 59.4 °F - 53.1 °F 80% 29.90 in 10.0 mi Calm Calm - N/A   Clear
2:35 AM 59.5 °F - 54.0 °F 82% 29.90 in 10.0 mi NNE 3.5 mph - N/A   Clear
2:55 AM 59.0 °F - 53.2 °F 81% 29.89 in 10.0 mi Calm Calm - N/A   Clear
3:15 AM 59.2 °F - 54.7 °F 85% 29.89 in 10.0 mi NNE 4.6 mph - N/A   Clear
3:35 AM 60.1 °F - 55.4 °F 85% 29.89 in 10.0 mi NE 4.6 mph - N/A   Clear
3:55 AM 59.7 °F - 55.0 °F 84% 29.89 in 10.0 mi Calm Calm - N/A   Clear
4:15 AM 59.2 °F - 54.7 °F 85% 29.88 in 10.0 mi ENE 3.5 mph - N/A   Clear
4:35 AM 57.7 °F - 53.8 °F 87% 29.89 in 10.0 mi Calm Calm - N/A   Clear
4:55 AM 57.2 °F - 53.8 °F 88% 29.90 in 10.0 mi Calm Calm - N/A   Clear
5:15 AM 56.7 °F - 52.9 °F 87% 29.90 in 10.0 mi Calm Calm - N/A   Clear
5:35 AM 57.2 °F - 53.8 °F 88% 29.88 in 10.0 mi SE 3.5 mph - N/A   Clear
5:55 AM 57.4 °F - 53.8 °F 88% 29.90 in 10.0 mi Calm Calm - N/A   Clear
6:15 AM 58.1 °F - 54.5 °F 88% 29.90 in 10.0 mi Calm Calm - N/A   Clear
6:35 AM 56.3 °F - 53.4 °F 90% 29.90 in 10.0 mi Calm Calm - N/A   Clear
6:55 AM 56.1 °F - 53.2 °F 90% 29.90 in 10.0 mi Calm Calm - N/A   Clear
7:15 AM 56.8 °F - 54.5 °F 92% 29.90 in 10.0 mi Calm Calm - N/A   Clear
7:35 AM 56.5 °F - 54.5 °F 93% 29.92 in 10.0 mi North 3.5 mph - N/A   Clear
7:55 AM 56.3 °F - 53.6 °F 91% 29.92 in 10.0 mi Calm Calm - N/A   Clear
8:15 AM 57.4 °F - 54.5 °F 90% 29.92 in 10.0 mi Calm Calm - N/A   Clear
8:35 AM 59.4 °F - 55.8 °F 88% 29.93 in 10.0 mi Calm Calm - N/A   Clear
8:55 AM 61.0 °F - 56.5 °F 85% 29.93 in 10.0 mi Calm Calm - N/A   Clear
9:15 AM 61.7 °F - 56.8 °F 84% 29.94 in 10.0 mi Calm Calm - N/A   Clear
9:35 AM 64.4 °F - 57.2 °F 77% 29.95 in 10.0 mi Calm Calm - N/A   Clear
9:55 AM 66.2 °F - 57.2 °F 73% 29.95 in 10.0 mi Calm Calm - N/A   Clear
10:15 AM 66.9 °F - 57.2 °F 71% 29.95 in 10.0 mi SE 3.5 mph - N/A   Clear
10:35 AM 68.9 °F - 57.4 °F 67% 29.94 in 10.0 mi SE 3.5 mph - N/A   Clear
10:55 AM 69.4 °F - 57.2 °F 65% 29.93 in 10.0 mi SSE 3.5 mph - N/A   Clear
11:35 AM 72.1 °F - 56.7 °F 58% 29.91 in 10.0 mi SSE 4.6 mph - N/A   Clear
11:55 AM 74.5 °F - 56.3 °F 53% 29.90 in 10.0 mi SE 6.9 mph - N/A   Clear
12:15 PM 75.6 °F - 55.6 °F 50% 29.88 in 10.0 mi SE 8.1 mph - N/A   Clear
12:35 PM 77.0 °F - 55.2 °F 47% 29.86 in 10.0 mi SSE 8.1 mph - N/A   Clear
12:55 PM 77.9 °F - 54.7 °F 45% 29.84 in 10.0 mi SSE 8.1 mph - N/A   Clear
1:15 PM 79.7 °F - 54.9 °F 42% 29.83 in 10.0 mi SE 5.8 mph - N/A   Clear
1:35 PM 80.4 °F 80.2 °F 54.1 °F 40% 29.81 in 10.0 mi SSE 6.9 mph - N/A   Clear
1:55 PM 80.8 °F 80.4 °F 53.8 °F 39% 29.79 in 10.0 mi South 4.6 mph - N/A   Clear
2:15 PM 81.0 °F 80.5 °F 53.8 °F 39% 29.78 in 10.0 mi SSE 8.1 mph - N/A   Clear
2:35 PM 81.7 °F 81.0 °F 54.0 °F 38% 29.76 in 10.0 mi ESE 6.9 mph - N/A   Clear
2:55 PM 82.0 °F 81.2 °F 53.6 °F 37% 29.75 in 10.0 mi SSE 9.2 mph - N/A   Clear
3:15 PM 81.9 °F 81.1 °F 53.8 °F 38% 29.74 in 10.0 mi ESE 4.6 mph - N/A   Clear
3:35 PM 81.5 °F 80.8 °F 53.8 °F 38% 29.73 in 10.0 mi ESE 10.4 mph - N/A   Clear
3:55 PM 80.6 °F 80.3 °F 53.8 °F 39% 29.73 in 10.0 mi SE 10.4 mph 16.1 mph N/A   Clear
4:15 PM 79.3 °F - 53.6 °F 41% 29.72 in 10.0 mi SE 11.5 mph - N/A   Clear
4:35 PM 78.4 °F - 54.1 °F 43% 29.72 in 10.0 mi SE 11.5 mph - N/A   Clear
4:55 PM 78.3 °F - 55.0 °F 45% 29.72 in 10.0 mi SSE 6.9 mph - N/A   Clear
5:15 PM 77.2 °F - 55.6 °F 47% 29.72 in 10.0 mi SE 5.8 mph - N/A   Clear
5:35 PM 76.1 °F - 55.8 °F 49% 29.72 in 10.0 mi SSE 8.1 mph - N/A   Clear
6:35 PM 72.3 °F - 56.5 °F 57% 29.71 in 10.0 mi Calm Calm - N/A   Clear
6:55 PM 70.9 °F - 56.1 °F 59% 29.71 in 10.0 mi SSE 4.6 mph - N/A   Clear
7:15 PM 70.2 °F - 55.9 °F 61% 29.70 in 10.0 mi SSE 4.6 mph - N/A   Clear
7:35 PM 69.6 °F - 55.9 °F 62% 29.70 in 10.0 mi ESE 3.5 mph - N/A   Clear
7:55 PM 68.0 °F - 55.8 °F 65% 29.71 in 10.0 mi ESE 3.5 mph - N/A   Clear
8:15 PM 67.1 °F - 55.6 °F 66% 29.71 in 10.0 mi ESE 3.5 mph - N/A   Clear
10:35 PM 68.0 °F - 63.5 °F 85% 29.69 in 10.0 mi ESE 4.6 mph - N/A   Clear
10:55 PM 67.6 °F - 63.5 °F 87% 29.69 in 10.0 mi SE 5.8 mph - N/A   Clear
11:15 PM 67.8 °F - 63.3 °F 85% 29.68 in 10.0 mi ESE 5.8 mph - N/A   Clear
11:35 PM 67.1 °F - 63.0 °F 87% 29.67 in 10.0 mi ESE 6.9 mph - N/A   Clear
11:55 PM 66.6 °F - 62.8 °F 88% 29.67 in 10.0 mi ESE 4.6 mph - N/A   Clear